CW0214 Weather Reports


time (UTC)temp
F
wind
direction
speed
knots
gust
knots
rain 1hr
in
rain 24hr
in
rain mn
in
humidity
%
barometer
mb
20260507060905 54 111 0.0 0.0 0.00 0.00 0.00 92 1010.4
20260507060405 53 111 0.0 0.0 0.00 0.00 0.00 92 1010.3
20260507055905 53 111 0.0 5.2 0.00 0.00 0.00 91 1010.3
20260507054905 53 106 0.0 0.0 0.00 0.00 0.00 91 1010.2
20260507053905 53 106 0.0 0.0 0.00 0.00 0.00 91 1010.3
20260507052905 53 83 0.9 5.2 0.00 0.00 0.00 91 1010.3
20260507052407 53 77 0.9 5.2 0.00 0.00 0.00 91 1010.3
20260507051905 53 59 0.9 5.2 0.00 0.00 0.00 91 1010.2
20260507051405 53 82 1.7 7.0 0.00 0.00 0.00 91 1010.4
20260507050905 53 29 0.0 7.0 0.00 0.00 0.00 91 1010.4
20260507050405 53 75 1.7 6.1 0.00 0.00 0.00 91 1010.4
20260507045904 53 32 0.9 6.1 0.00 0.00 0.00 91 1010.4
20260507045404 53 69 2.6 7.0 0.00 0.00 0.00 91 1010.4
20260507044905 53 105 1.7 5.2 0.00 0.00 0.00 91 1010.5
20260507044405 53 54 1.7 5.2 0.00 0.00 0.00 91 1010.5
20260507043405 53 125 3.5 7.8 0.00 0.00 0.00 91 1010.4
20260507042904 53 96 1.7 7.8 0.00 0.00 0.00 91 1010.6
20260507042405 53 64 1.7 8.7 0.00 0.00 0.00 91 1010.5
20260507041905 53 110 1.7 5.2 0.00 0.00 0.00 91 1010.5
20260507041405 53 76 0.0 1.7 0.00 0.00 0.00 90 1010.6
20260507040905 53 99 1.7 6.1 0.00 0.00 0.00 90 1010.7
20260507040404 53 263 0.0 5.2 0.00 0.00 0.00 90 1010.7
20260507035905 53 96 0.9 5.2 0.00 0.00 0.00 90 1010.7
20260507035404 53 101 0.9 5.2 0.00 0.00 0.00 90 1010.8
20260507034405 54 18 0.0 5.2 0.00 0.00 0.00 90 1010.8
20260507033905 53 70 1.7 4.3 0.00 0.00 0.00 90 1010.9
20260507033404 54 49 0.9 4.3 0.00 0.00 0.00 89 1010.8
20260507032405 54 46 1.7 7.0 0.00 0.00 0.00 89 1010.9
20260507031905 54 34 0.9 7.8 0.00 0.00 0.00 89 1010.8
20260507031405 54 77 1.7 6.1 0.00 0.00 0.00 89 1010.8
20260507030905 54 89 1.7 6.1 0.00 0.00 0.00 89 1010.8
20260507030405 54 57 0.9 8.7 0.00 0.00 0.00 89 1010.9
20260507025905 54 122 1.7 7.8 0.00 0.00 0.00 89 1011.0
20260507025405 54 176 2.6 10.4 0.00 0.00 0.00 89 1010.8
20260507024904 54 142 2.6 7.8 0.00 0.00 0.00 88 1010.9
20260507024404 54 173 2.6 7.8 0.00 0.00 0.00 88 1010.8
20260507023904 54 147 2.6 8.7 0.00 0.00 0.00 88 1010.9
20260507023404 54 113 1.7 8.7 0.00 0.00 0.00 88 1011.0
20260507022905 54 173 3.5 10.4 0.00 0.00 0.00 88 1011.0
20260507022404 54 123 2.6 10.4 0.00 0.00 0.00 88 1010.9
20260507021905 54 102 1.7 10.4 0.00 0.00 0.00 88 1010.9
20260507020904 54 100 1.7 7.8 0.00 0.00 0.00 88 1010.9
20260507020405 54 219 0.9 6.1 0.00 0.00 0.00 87 1010.9
20260507015904 54 91 4.3 11.3 0.00 0.00 0.00 87 1011.1
20260507015405 54 147 1.7 11.3 0.00 0.00 0.00 87 1011.1
20260507014904 54 42 2.6 7.8 0.00 0.00 0.00 87 1011.2
20260507014404 54 128 1.7 7.0 0.00 0.00 0.00 87 1011.2
20260507013904 54 77 0.9 7.0 0.00 0.00 0.00 87 1011.2
20260507013405 54 51 0.9 7.0 0.00 0.00 0.00 87 1011.2
20260507012904 54 126 2.6 11.3 0.00 0.00 0.00 87 1011.2
20260507012405 54 107 1.7 7.8 0.00 0.00 0.00 87 1011.3
20260507011905 54 115 1.7 7.8 0.00 0.00 0.00 87 1011.4
20260507011405 54 138 1.7 13.9 0.00 0.00 0.00 87 1011.5
20260507010904 54 129 1.7 7.0 0.00 0.00 0.00 87 1011.5
20260507010404 54 130 0.9 4.3 0.00 0.00 0.00 87 1011.5
20260507005904 54 143 0.9 5.2 0.00 0.00 0.00 87 1011.6
20260507005404 54 137 6.1 11.3 0.00 0.00 0.00 87 1011.6
20260507004905 54 146 3.5 8.7 0.00 0.00 0.00 86 1011.6
20260507004405 54 129 2.6 7.8 0.00 0.00 0.00 86 1011.7
20260507003904 54 136 5.2 12.2 0.00 0.00 0.00 86 1011.8
20260507003405 54 144 4.3 12.2 0.00 0.00 0.00 86 1011.8
20260507002904 54 104 3.5 10.4 0.00 0.00 0.00 86 1011.7
20260507002404 55 139 4.3 12.2 0.00 0.00 0.00 85 1011.8
20260507001904 55 64 0.9 12.2 0.00 0.00 0.00 85 1011.9
20260507001405 55 93 0.9 8.7 0.00 0.00 0.00 85 1011.9
20260507000904 55 143 4.3 10.4 0.00 0.00 0.00 85 1011.9
20260507000406 55 155 3.5 8.7 0.00 0.00 0.00 84 1011.9
20260506234905 55 185 0.9 7.0 0.00 0.00 0.00 84 1011.8
20260506233405 55 157 4.3 10.4 0.00 0.00 0.00 84 1011.8
20260506232905 55 122 0.0 7.0 0.00 0.00 0.00 83 1011.7
20260506232404 55 96 0.9 6.1 0.00 0.00 0.00 83 1011.7
20260506231905 55 103 0.9 5.2 0.00 0.00 0.00 83 1011.7
20260506230905 55 104 4.3 10.4 0.00 0.00 0.00 82 1011.7
20260506230404 55 126 3.5 7.8 0.00 0.00 0.00 82 1011.7
20260506225905 55 136 0.0 6.1 0.00 0.00 0.00 82 1011.8
20260506225405 55 108 3.5 10.4 0.00 0.00 0.00 82 1011.8
20260506224404 56 110 2.6 7.8 0.00 0.00 0.00 81 1011.9
20260506223904 56 87 1.7 5.2 0.00 0.00 0.00 81 1011.9
20260506223407 56 111 4.3 10.4 0.00 0.00 0.00 81 1012.0
20260506222405 56 94 2.6 10.4 0.00 0.00 0.00 80 1012.0
20260506221904 56 167 2.6 7.8 0.00 0.00 0.00 80 1012.0
20260506221404 56 114 2.6 7.8 0.00 0.00 0.00 79 1012.1
20260506220904 57 132 2.6 7.8 0.00 0.00 0.00 79 1012.1
20260506220405 57 104 3.5 11.3 0.00 0.00 0.00 79 1012.2
20260506215905 57 132 4.3 10.4 0.00 0.00 0.00 78 1012.2
20260506214905 57 95 1.7 6.1 0.00 0.00 0.00 77 1012.1
20260506214404 57 113 1.7 7.8 0.00 0.00 0.00 77 1012.1
20260506213904 57 85 2.6 10.4 0.00 0.00 0.00 77 1012.0
20260506212404 58 54 1.7 7.0 0.00 0.00 0.00 75 1012.0
20260506211904 58 129 4.3 8.7 0.00 0.00 0.00 75 1012.0
20260506211404 58 94 2.6 10.4 0.00 0.00 0.00 74 1012.0
20260506210904 58 69 4.3 10.4 0.00 0.00 0.00 74 1012.0
20260506210405 58 68 4.3 7.8 0.00 0.00 0.00 73 1011.9
20260506205904 58 77 3.5 6.1 0.00 0.00 0.00 73 1011.9
20260506205404 58 56 3.5 8.7 0.00 0.00 0.00 72 1011.8
20260506203904 59 46 1.7 6.1 0.00 0.00 0.00 71 1011.7
20260506203404 59 65 4.3 11.3 0.00 0.00 0.00 70 1011.6
20260506202405 60 71 3.5 7.8 0.00 0.00 0.00 69 1011.6
20260506201904 60 75 2.6 7.8 0.00 0.00 0.00 68 1011.6
20260506201404 60 96 3.5 7.8 0.00 0.00 0.00 67 1011.5
20260506200904 60 48 2.6 7.8 0.00 0.00 0.00 67 1011.5
20260506195904 61 39 4.3 7.8 0.00 0.00 0.00 65 1011.3
20260506194904 61 44 4.3 8.7 0.00 0.00 0.00 64 1011.4
20260506194404 61 42 1.7 7.0 0.00 0.00 0.00 63 1011.4
20260506193904 62 44 0.9 7.8 0.00 0.00 0.00 62 1011.4
20260506193404 62 27 1.7 7.0 0.00 0.00 0.00 61 1011.5
20260506192904 62 75 3.5 12.2 0.00 0.00 0.00 61 1011.3
20260506192405 62 77 0.9 7.0 0.00 0.00 0.00 60 1011.3
20260506191405 63 118 1.7 7.8 0.00 0.00 0.00 60 1011.2
20260506190905 63 72 1.7 4.3 0.00 0.00 0.00 59 1011.1
20260506185906 64 75 2.6 8.7 0.00 0.00 0.00 58 1010.9
20260506184905 64 23 0.9 10.4 0.00 0.00 0.00 57 1010.8
20260506184405 65 67 0.9 7.8 0.00 0.00 0.00 56 1010.8
20260506183905 65 55 2.6 11.3 0.00 0.00 0.00 56 1010.8
20260506183405 65 21 1.7 10.4 0.00 0.00 0.00 55 1010.8
20260506182906 65 36 2.6 8.7 0.00 0.00 0.00 54 1010.8
20260506182406 66 158 2.6 8.7 0.00 0.00 0.00 54 1010.8
20260506181906 66 51 0.0 2.6 0.00 0.00 0.00 53 1010.8
20260506181405 66 37 0.9 4.3 0.00 0.00 0.00 53 1010.9
20260506180905 67 45 0.9 7.0 0.00 0.00 0.00 53 1010.8
20260506180405 67 98 2.6 13.9 0.00 0.00 0.00 52 1011.0
20260506175905 67 51 0.9 10.4 0.00 0.00 0.00 51 1010.8
20260506175405 67 86 4.3 12.2 0.00 0.00 0.00 51 1010.9
20260506174905 68 156 2.6 15.6 0.00 0.00 0.00 51 1010.9
20260506174406 68 88 2.6 11.3 0.00 0.00 0.00 50 1010.9
20260506173906 68 84 4.3 12.2 0.00 0.00 0.00 49 1011.0
20260506173405 68 111 4.3 10.4 0.00 0.00 0.00 49 1011.0
20260506172905 69 105 2.6 8.7 0.00 0.00 0.00 48 1011.0
20260506172405 69 99 5.2 7.8 0.00 0.00 0.00 48 1011.2
20260506171905 69 80 3.5 12.2 0.00 0.00 0.00 47 1011.1
20260506171405 69 99 0.9 8.7 0.00 0.00 0.00 47 1011.1
20260506170905 69 64 2.6 12.2 0.00 0.00 0.00 46 1011.2
20260506170405 70 77 0.9 7.0 0.00 0.00 0.00 46 1011.2
20260506165906 70 47 0.9 8.7 0.00 0.00 0.00 47 1011.2
20260506165405 70 354 0.9 6.1 0.00 0.00 0.00 47 1011.1
20260506164905 69 108 0.9 8.7 0.00 0.00 0.00 46 1011.2
20260506164405 68 102 2.6 8.7 0.00 0.00 0.00 48 1011.3
20260506163905 68 15 1.7 7.0 0.00 0.00 0.00 49 1011.2
20260506163405 69 41 2.6 8.7 0.00 0.00 0.00 49 1011.1
20260506162905 69 3 1.7 7.0 0.00 0.00 0.00 49 1011.2
20260506161905 68 77 3.5 7.8 0.00 0.00 0.00 48 1011.2
20260506160905 69 43 1.7 6.1 0.00 0.00 0.00 46 1011.3
20260506160405 69 334 1.7 4.3 0.00 0.00 0.00 45 1011.4
20260506155905 69 95 1.7 6.1 0.00 0.00 0.00 46 1011.4
20260506155405 69 76 1.7 7.0 0.00 0.00 0.00 46 1011.2
20260506154905 70 82 3.5 7.0 0.00 0.00 0.00 45 1011.2
20260506154407 70 99 2.6 6.1 0.00 0.00 0.00 42 1011.2
20260506153905 71 46 0.9 7.0 0.00 0.00 0.00 41 1011.3
20260506153405 70 74 0.0 7.8 0.00 0.00 0.00 41 1011.3
20260506152905 70 175 1.7 7.8 0.00 0.00 0.00 42 1011.5
20260506152405 70 32 0.0 5.2 0.00 0.00 0.00 41 1011.5
20260506151905 70 89 2.6 6.1 0.00 0.00 0.00 42 1011.6
20260506150905 70 154 1.7 6.1 0.00 0.00 0.00 41 1011.8
20260506150405 71 43 0.0 7.8 0.00 0.00 0.00 41 1011.7
20260506145405 71 167 2.6 6.1 0.00 0.00 0.00 39 1012.0
20260506144905 72 259 1.7 7.8 0.00 0.00 0.00 39 1012.1
20260506144405 72 213 0.9 8.7 0.00 0.00 0.00 39 1012.1
20260506143905 72 128 0.0 5.2 0.00 0.00 0.00 39 1012.2
20260506143405 72 79 0.9 7.8 0.00 0.00 0.00 38 1012.2
20260506142905 72 161 0.9 4.3 0.00 0.00 0.00 39 1012.3
20260506142405 70 55 0.0 5.2 0.00 0.00 0.00 40 1012.3
20260506141405 71 209 0.9 6.1 0.00 0.00 0.00 39 1012.5
20260506140905 72 126 1.7 7.8 0.00 0.00 0.00 39 1012.4
20260506140405 73 96 1.7 5.2 0.00 0.00 0.00 37 1012.6
20260506135405 73 213 0.9 6.1 0.00 0.00 0.00 38 1012.6
20260506134905 72 126 1.7 7.0 0.00 0.00 0.00 38 1012.7
20260506134405 71 71 0.0 1.7 0.00 0.00 0.00 39 1012.7
20260506133905 71 132 0.0 0.9 0.00 0.00 0.00 40 1012.9
20260506132405 72 241 0.9 7.0 0.00 0.00 0.00 40 1013.1
20260506131905 71 67 0.0 2.6 0.00 0.00 0.00 41 1013.1
20260506131405 70 151 0.0 6.1 0.00 0.00 0.00 41 1013.1
20260506130405 72 183 1.7 6.1 0.00 0.00 0.00 40 1013.2
20260506125905 71 146 0.9 5.2 0.00 0.00 0.00 40 1013.3
20260506125405 72 147 0.0 7.0 0.00 0.00 0.00 41 1013.2
20260506124904 71 27 0.9 7.8 0.00 0.00 0.00 41 1013.3
20260506124405 69 91 0.0 0.0 0.00 0.00 0.00 42 1013.4
20260506123905 69 133 0.9 4.3 0.00 0.00 0.00 41 1013.4
20260506122905 69 125 1.7 5.2 0.00 0.00 0.00 43 1013.6
20260506122405 69 345 2.6 6.1 0.00 0.00 0.00 41 1013.6
20260506121904 70 265 1.7 7.0 0.00 0.00 0.00 41 1013.6
20260506121405 69 103 0.9 2.6 0.00 0.00 0.00 41 1013.7
20260506120904 69 105 0.9 5.2 0.00 0.00 0.00 42 1013.9
20260506120405 70 221 5.2 8.7 0.00 0.00 0.00 41 1014.0
20260506115905 70 89 0.9 6.1 0.00 0.00 0.00 43 1014.0
20260506115405 70 83 0.9 8.7 0.00 0.00 0.00 44 1014.1
20260506114905 68 231 3.5 6.1 0.00 0.00 0.00 45 1014.2
20260506114405 68 209 0.9 8.7 0.00 0.00 0.00 42 1014.3
20260506113905 67 313 0.9 5.2 0.00 0.00 0.00 44 1014.2
20260506113405 69 216 5.2 7.0 0.00 0.00 0.00 42 1014.3
20260506112905 69 184 1.7 6.1 0.00 0.00 0.00 41 1014.3
20260506111405 67 278 1.7 5.2 0.00 0.00 0.00 45 1014.5
20260506110905 67 187 0.0 6.1 0.00 0.00 0.00 45 1014.6
20260506110405 67 170 0.9 6.1 0.00 0.00 0.00 45 1014.6
20260506105905 67 249 0.0 7.0 0.00 0.00 0.00 47 1014.6
20260506105405 68 251 0.9 4.3 0.00 0.00 0.00 45 1014.6
20260506104905 68 167 4.3 8.7 0.00 0.00 0.00 44 1014.6
20260506104405 68 348 0.0 7.8 0.00 0.00 0.00 44 1014.6
20260506103905 68 149 0.9 7.8 0.00 0.00 0.00 45 1014.7
20260506103405 69 128 0.0 4.3 0.00 0.00 0.00 44 1014.7
20260506102905 69 120 0.9 5.2 0.00 0.00 0.00 45 1014.8
20260506102405 67 68 0.0 6.1 0.00 0.00 0.00 48 1014.8
20260506101905 67 113 1.7 6.1 0.00 0.00 0.00 49 1014.8
20260506100905 66 298 0.9 4.3 0.00 0.00 0.00 51 1014.8
20260506100405 67 297 0.0 0.9 0.00 0.00 0.00 51 1014.8
20260506095905 66 86 0.9 5.2 0.00 0.00 0.00 52 1014.8
20260506095405 67 150 0.9 7.0 0.00 0.00 0.00 52 1014.9
20260506094905 67 119 0.9 7.0 0.00 0.00 0.00 53 1014.9
20260506094405 66 83 2.6 6.1 0.00 0.00 0.00 54 1014.8
20260506093904 65 203 0.9 4.3 0.00 0.00 0.00 55 1014.8
20260506093405 66 152 0.9 7.0 0.00 0.00 0.00 56 1014.8
20260506092905 65 161 0.0 4.3 0.00 0.00 0.00 58 1014.9
20260506092405 65 170 2.6 7.0 0.00 0.00 0.00 57 1015.0
20260506091905 64 221 0.9 5.2 0.00 0.00 0.00 57 1014.9
20260506091405 64 126 0.9 5.2 0.00 0.00 0.00 60 1015.0
20260506090905 64 145 0.9 7.8 0.00 0.00 0.00 61 1015.0
20260506090405 64 108 0.9 7.8 0.00 0.00 0.00 63 1015.0
20260506085905 64 110 0.9 6.1 0.00 0.00 0.00 62 1015.1
20260506085405 63 111 0.0 6.1 0.00 0.00 0.00 64 1015.1
20260506084904 62 92 0.0 5.2 0.00 0.00 0.00 66 1015.1
20260506084405 62 90 0.9 6.1 0.00 0.00 0.00 69 1015.1
20260506083905 61 129 0.9 7.8 0.00 0.00 0.00 70 1015.1
20260506083405 61 80 0.9 5.2 0.00 0.00 0.00 71 1015.2
20260506082905 60 131 1.7 6.1 0.00 0.00 0.00 72 1015.2
20260506081905 60 180 0.0 4.3 0.00 0.00 0.00 72 1015.2
20260506080405 58 116 0.9 6.1 0.00 0.00 0.00 76 1015.0
20260506073405 56 140 0.0 4.3 0.00 0.00 0.00 83 1015.2
20260506072905 55 41 0.0 0.0 0.00 0.00 0.00 85 1015.2
20260506072404 55 41 0.0 0.0 0.00 0.00 0.00 86 1015.2
20260506071905 54 41 0.0 0.0 0.00 0.00 0.00 87 1015.2
20260506071405 54 41 0.0 0.0 0.00 0.00 0.00 88 1015.2
20260506070905 53 41 0.0 0.0 0.00 0.00 0.00 88 1015.2
20260506070405 53 82 0.0 0.0 0.00 0.00 0.00 89 1015.2
20260506062405 51 82 0.0 0.9 0.00 0.00 0.00 92 1015.0
20260506061905 51 82 0.0 0.0 0.00 0.00 0.00 92 1014.9
20260506061405 51 82 0.0 0.0 0.00 0.00 0.00 92 1015.0